This is the latest recevied weather packets stored in our database for station/object AC4AG. If no packets are shown the sender has not sent any weather packets the latest 10 day(s).
| Time | Temp. | Humidity | Pressure | Rain* | Wind** | Luminosity | Snow |
|---|---|---|---|---|---|---|---|
| 1777479907 | 16.11° C | 99% | 1010.7 hPa | 0 mm | - | 121 W/m² | - |
| 1777479604 | 16.67° C | 99% | 1010.8 hPa | 0 mm | - | 107 W/m² | - |
| 1777479302 | 16.67° C | 99% | 1010.7 hPa | 0 mm | - | 199 W/m² | - |
| 1777478998 | 16.67° C | 99% | 1010.7 hPa | 0 mm | - | 124 W/m² | - |
| 1777478695 | 16.67° C | 99% | 1010.8 hPa | 0 mm | - | 153 W/m² | - |
| 1777478391 | 16.67° C | 99% | 1010.7 hPa | 0 mm | - | 141 W/m² | - |
| 1777478088 | 16.67° C | 99% | 1010.8 hPa | 0 mm | - | 126 W/m² | - |
| 1777477784 | 16.67° C | 99% | 1010.8 hPa | 0 mm | - | 123 W/m² | - |
| 1777477480 | 16.67° C | 99% | 1010.8 hPa | 0 mm | - | 120 W/m² | - |
| 1777477176 | 16.67° C | 99% | 1010.7 hPa | 0 mm | - | 129 W/m² | - |
| 1777476873 | 16.67° C | 99% | 1010.8 hPa | 0 mm | - | 166 W/m² | - |
| 1777476571 | 16.67° C | 99% | 1010.7 hPa | 0 mm | - | 172 W/m² | - |
| 1777476267 | 16.67° C | 99% | 1010.6 hPa | 0 mm | - | 132 W/m² | - |
| 1777475962 | 16.11° C | 99% | 1010.7 hPa | 0 mm | - | 110 W/m² | - |
| 1777475659 | 16.11° C | 99% | 1010.8 hPa | 0 mm | - | 134 W/m² | - |
| 1777475356 | 16.11° C | 99% | 1010.7 hPa | 0 mm | - | 112 W/m² | - |
| 1777475050 | 16.11° C | 99% | 1010.6 hPa | 0 mm | - | 178 W/m² | - |
| 1777474748 | 16.11° C | 99% | 1010.7 hPa | 0 mm | - | 125 W/m² | - |
| 1777474444 | 16.11° C | 99% | 1010.8 hPa | 0 mm | - | 138 W/m² | - |
| 1777474140 | 16.11° C | 99% | 1010.7 hPa | 0 mm | - | 138 W/m² | - |
| 1777473838 | 16.11° C | 99% | 1010.9 hPa | 0 mm | - | 161 W/m² | - |
| 1777473535 | 16.11° C | 99% | 1010.5 hPa | 0 mm | - | 115 W/m² | - |
| 1777473230 | 16.11° C | 99% | 1010.8 hPa | 0 mm | - | 126 W/m² | - |
| 1777472927 | 16.11° C | 99% | 1010.8 hPa | 0 mm | - | 116 W/m² | - |
| 1777472624 | 16.11° C | 99% | 1010.8 hPa | 0 mm | - | 126 W/m² | - |
* Rain latest hour (hover to see other rain measurements)
** Current wind speed in m/s (hover to see current wind gust speed)